Location: Boiro
(42.6475°N, 8.8834°W)
Time: 12:37:52
(UTC+02:00)

deb Agena D - Pass Details

Date: 07 July 2022
Orbit: 997 x 1025 km, 100.1° (Epoch: 16 August)

Event Time Altitude Azimuth Distance (km) Brightness Sun altitude
Exits shadow 23:43:58 - 95° (E) 3,168 ? -13.2°
Reaches altitude 10° 23:45:32 10° 84° (E) 2,820 ? -13.4°
Maximum altitude 23:48:46 15° 53° (NE) 2,496 ? -13.8°
Drops below altitude 10° 23:51:59 10° 22° (NNE) 2,826 ? -14.1°
Sets 23:55:43 0° 360° (N) 3,780 ? -14.6°
